Home   Weather   Rheinfelden (Baden)   Past weeks

Flag for Germany Past Weather in Rheinfelden (Baden), Baden-Württemberg, Germany — Yesterday and Last 2 Weeks

Now
18 °F

Passing clouds.


Feels Like: 11 °F
Forecast: 16 / 32 °F
Wind: 5 mph from Northeast

Location: Bale-Mulhouse

Current Time: Jan 20, 2017 at 5:01:47 am

Latest Report: Jan 20, 2017 at 4:00 am


Visibility: 4 mi

Pressure: 30.45 "Hg

Humidity: 86%

Dew Point: 14 °F

Location of Rheinfelden (Baden)Location

Past Weather in Rheinfelden (Baden) — Graph

°F

Rheinfelden (Baden) Temperature Yesterday

Maximum temperature yesterday: 27 °F (at 2:30 pm)
Minimum temperature yesterday: 19 °F (at 1:30 am)
Average temperature yesterday: 23 °F

High & Low Weather Summary for the Past Weeks

 TemperatureHumidityPressure
High50 °F (Jan 12, 11:00 pm)100% (Jan 9, 10:00 am)30.69 "Hg (Jan 9, 10:00 am)
Low9 °F (Jan 7, 2:30 am)51% (Jan 18, 1:00 pm)29.45 "Hg (Jan 12, 11:30 pm)
Average29 °F82%30.23 "Hg
* Reported Jan 5 3:00 am — Jan 20 3:30 am, Rheinfelden (Baden), Weather by CustomWeather, © 2017

Note: Actual official high and low records may vary slightly from our data, if they occured in-between our weather recording intervals... More about our weather records

Advertising

Rheinfelden (Baden) Weather History for the Previous 24 Hours

Scroll right to see more
 ConditionsComfort  
Time TempWeatherWind HumidityBarometerVisibility
3:30 am
Fri, Jan 20
18 °FPassing clouds.3 mph86%30.45 "Hg4 mi
3:00 am18 °FPassing clouds.5 mph86%30.45 "Hg4 mi
2:30 am18 °FPassing clouds.3 mph86%30.45 "Hg4 mi
2:00 am19 °FClear.3 mph79%30.45 "Hg4 mi
1:30 am19 °FPassing clouds.2 mph86%30.45 "Hg4 mi
1:00 am19 °FPassing clouds.5 mph86%30.45 "Hg4 mi
12:30 am21 °FPassing clouds.2 mph80%30.45 "Hg4 mi
12:00 am23 °FPassing clouds.5 mph74%30.45 "Hg4 mi
11:30 pm
Thu, Jan 19
25 °FPassing clouds.8 mph69%30.45 "Hg5 mi
11:00 pm25 °FPassing clouds.9 mph69%30.45 "Hg5 mi
10:30 pm25 °FPassing clouds.9 mph74%30.45 "Hg5 mi
10:00 pm25 °FPassing clouds.14 mph69%30.48 "Hg5 mi
9:30 pm25 °FOvercast.14 mph74%30.48 "Hg5 mi
9:00 pm27 °FOvercast.14 mph69%30.48 "Hg5 mi
8:30 pm27 °FOvercast.12 mph69%30.45 "Hg5 mi
8:00 pm27 °FOvercast.12 mph69%30.48 "Hg5 mi
7:30 pm27 °FOvercast.8 mph69%30.48 "Hg5 mi
7:00 pm27 °FOvercast.6 mph69%30.48 "HgN/A
6:30 pm27 °FOvercast.5 mph69%30.45 "HgN/A
6:00 pm27 °FOvercast.6 mph69%30.45 "HgN/A
5:30 pm27 °FOvercast.8 mph69%30.45 "HgN/A
5:00 pm27 °FOvercast.7 mph69%30.45 "HgN/A
4:30 pm27 °FOvercast.5 mph69%30.45 "Hg6 mi
4:00 pm27 °FOvercast.6 mph74%30.45 "Hg6 mi
3:30 pm27 °FPartly sunny.7 mph74%30.45 "Hg6 mi
3:00 pm27 °FPartly sunny.7 mph74%30.45 "Hg6 mi
2:30 pm27 °FPartly sunny.8 mph74%30.45 "Hg6 mi
2:00 pm25 °FPartly sunny.7 mph80%30.45 "Hg5 mi
1:30 pm25 °FPartly sunny.7 mph80%30.45 "Hg4 mi
1:00 pm25 °FPartly sunny.7 mph80%30.48 "Hg4 mi
12:30 pm23 °FPartly sunny.8 mph86%30.48 "Hg4 mi
12:00 pm23 °FPartly sunny.7 mph86%30.48 "Hg4 mi
11:30 am23 °FPartly sunny.7 mph80%30.48 "Hg4 mi
11:00 am21 °FLow clouds.8 mph86%30.48 "Hg4 mi
10:00 am19 °FOvercast.8 mph93%30.48 "Hg4 mi
9:30 am19 °FLow clouds.8 mph86%30.48 "Hg4 mi
9:00 am19 °FLow clouds.7 mph86%30.48 "Hg4 mi
8:30 am19 °FPartly sunny.7 mph86%30.48 "Hg4 mi
8:00 am19 °FPassing clouds.8 mph86%30.45 "Hg4 mi
7:30 am19 °FPassing clouds.8 mph86%30.45 "Hg4 mi
7:00 am19 °FPassing clouds.6 mph93%30.45 "Hg4 mi
6:30 am19 °FPassing clouds.7 mph93%30.45 "Hg4 mi
6:00 am19 °FPassing clouds.7 mph93%30.45 "Hg4 mi
5:30 am19 °FPassing clouds.7 mph93%30.45 "Hg4 mi
5:00 am19 °FPassing clouds.7 mph93%30.45 "Hg4 mi
Weather by CustomWeather, © 2017

See weather overviewHow to use our weather pages